www.pogodaiklimat.ru

Погода и климат >> Архив погоды >> Россия >> Волгоградская область >> Волгоград


АРХИВ ПОГОДЫ в Волгограде

Время (UTC), дата Ветер
(напр.,м/с)
 
Видим.   Явления Облачность Т
(С)
Тd
(С)
f
(%)
Тe
(С)
Тes
(С)
Комфортность P
(гПа)
Po
(гПа)
Тmin
(С)
Tmax
(С)
R
(мм)
R24
(мм)
S
(см)
09 19.05 З 6 10 км 4/4 1000 м
[Cu hum]
+26.5 +9.6 35 +27 +31 жарко 1013.6 996.0
12 19.05 ЮЗ 6-11
{11}
10 км 8/8 1000 м
[Cu med, cong]
+28.5 +9.7 31 +29 +29 жарко 1012.3 994.9
15 19.05 З 6
{11}
10 км 8/4 1000 м
[Cu hum Ac trans]
+26.2 +10.9 38 +27 +27 жарко 1012.2 994.7 +28.7
18 19.05 ЮЗ 3
{11}
10 км 8/0
[Ac trans Ci fib]
+21.6 +12.7 57 +24 +24 комфорт 1013.5 995.7
21 19.05 З 2 10 км 6/0
[Ac trans]
+18.8 +12.3 66 +20 +20 тепло 1014.0 996.0
00 20.05 З 1 10 км ясно +14.9 +11.6 81 +15 +15 тепло 1014.4 996.1
03 20.05 штиль 0 10 км 8/0
[Ac trans Ci fib]
+17.3 +11.3 68 +17 +19 тепло 1014.6 996.5 +13.0
06 20.05 Ю 3 10 км 8/0
[Ac trans]
+24.4 +11.1 43 +26 +30 жарко 1015.3 997.6
09 20.05 ЮЗ 4 10 км 6/3 1000 м
[Cu hum Ac trans]
+27.7 +7.9 29 +27 +33 жарко 1014.6 997.1
12 20.05 Ю 5-12
{12}
10 км 6/4 1000 м
[Cu med, cong Ac trans]
+28.9 +6.9 25 +28 +31 жарко 1013.4 996.0
15 20.05 ЮВ 5
{12}
10 км гроза, ливневой дождь 8/8 1000 м
[Cb calv]
+27.4 +10.9 36 +28 +28 жарко 1013.0 995.5 +30.0
18 20.05 В 4 10 км в посл. час гроза {ливн. осадки} 8/8 1000 м
[Cb calv]
+21.9 +12.9 57 +25 +25 комфорт 1014.8 997.0
21 20.05 В 4 10 км 5/0
[Ac trans]
+19.2 +12.7 66 +20 +20 тепло 1014.6 996.6
00 21.05 В 4 10 км 6/0
[Ci fib]
+17.5 +11.5 68 +17 +17 тепло 1014.5 996.4
03 21.05 ЮВ 3 10 км 6/0
[Ci fib]
+19.8 +13.0 65 +22 +23 комфорт 1015.2 997.2 +16.8
06 21.05 С 4 10 км 8/0
[Ac trans]
+23.2 +13.7 55 +27 +30 душно 1015.5 997.7
09 21.05 В 2 10 км 8/0
[Ac trans]
+27.2 +8.3 30 +27 +36 жарко 1014.8 997.3
12 21.05 СЗ 3 10 км 8/0
[Ac trans]
+28.4 +8.1 28 +28 +33 жарко 1014.8 997.3
15 21.05 СЗ 7
{12}
10 км 8/0
[Ac trans]
+24.5 +15.4 57 +27 +28 жарко 1015.2 997.5 +29.3
18 21.05 СЗ 5
{12}
10 км 8/0
[Ac trans]
+21.9 +15.7 68 +26 +26 душно 1016.6 998.8
21 21.05 СЗ 3 10 км в посл. час гроза 8/8 1000 м
[Cb calv]
+21.3 +15.5 70 +25 +25 комфорт 1016.8 998.9
00 22.05 С 4 10 км {гроза, ливн. осадки} 8/8 1500 м
[Cb calv]
+18.9 +12.9 68 +20 +20 тепло 1017.7 999.6
03 22.05 СВ 8-10
{10}
10 км 8/4 1500 м
[Cb calv Ac trans]
+19.7 +14.7 73 +21 +21 комфорт 1019.1 1001.1 +18.3
06 22.05 СВ 11-14
{13}
10 км 8/3 1500 м
[Cb calv Ac trans]
+22.8 +14.5 59 +26 +26 жарко 1019.4 1001.6
09 22.05 В 8-11
{15}
10 км в посл. час ливневой дождь 9/3 1500 м
[Cb calv Ac trans]
+26.5 +9.6 35 +27 +28 жарко 1020.4 1002.7
12 22.05 ЮВ 7-10
{15}
10 км в посл. час гроза {ливн. осадки} 8/0
[Ac trans]
+30.9 +9.1 26 +30 +32 жарко 1019.6 1002.2
15 22.05 СЗ 1
{10}
10 км {гроза} 9/3 1500 м
[Cb calv Ac trans]
+27.6 +15.6 48 +31 +31 душно 1020.2 1002.6 +31.3
18 22.05 СВ 7
{10}
10 км {гроза} 8/0
[Ac trans]
+26.0 +10.0 37 +27 +27 жарко 1020.7 1003.0
21 22.05 В 7-10
{11}
10 км 5/0
[Ac trans]
+24.6 +6.2 31 +25 +25 комфорт 1021.5 1003.7
00 23.05 В 6 10 км 6/0
[Ac trans]
+22.0 +5.3 34 +22 +22 комфорт 1021.9 1003.9
03 23.05 В 5 10 км 6/0
[Ac trans]
+18.6 +5.8 43 +19 +19 тепло 1022.2 1004.0 +18.0
06 23.05 В 6
{10}
10 км 6/0
[Ac trans]
+25.2 +7.3 32 +25 +28 комфорт 1022.0 1004.2
09 23.05 В 5 10 км 5/0
[Ac trans]
+30.0 +8.4 26 +29 +36 жарко 1021.1 1003.6
12 23.05 В 5 10 км 6/0
[Ci fib]
+34.1 +6.1 18 +32 +37 жарко 1018.8 1001.6
15 23.05 В 8-10
{13}
10 км 6/0
[Ac trans]
+32.7 +5.3 18 +30 +31 жарко 1016.9 999.6 +34.7
18 23.05 ЮВ 7
{13}
10 км 5/0
[Ac trans]
+28.3 +6.5 25 +27 +27 жарко 1016.7 999.2
21 23.05 ЮВ 7 10 км 5/0
[Ac trans]
+25.6 +9.2 35 +26 +26 жарко 1016.8 999.1
00 24.05 ЮВ 5
{10}
10 км ясно +20.5 +12.1 59 +22 +22 комфорт 1016.3 998.4
03 24.05 ЮВ 5 10 км 8/0
[Ci fib]
+21.5 +11.2 52 +23 +24 комфорт 1014.9 997.0 +17.0
06 24.05 ЮВ 5 10 км 8/0
[Ci fib]
+25.9 +12.4 43 +27 +32 жарко 1014.0 996.4
09 24.05 ЮВ 7-11
{12}
10 км 5/0
[Ci fib]
+32.7 +6.9 20 +31 +35 жарко 1011.6 994.4
12 24.05 ЮВ 11-14
{16}
10 км 5/0
[Ci fib]
+35.9 +6.6 16 +32 +32 жарко 1008.5 991.5
15 24.05 З 8-11
{15}
10 км 5/0
[Ci fib]
+31.7 +9.2 25 +31 +31 жарко 1008.1 990.9 +36.6
18 24.05 З 3
{15}
10 км 4/0
[Ci fib]
+23.5 +12.1 49 +25 +25 комфорт 1009.2 991.6
21 24.05 ЮЗ 2 10 км 3/0
[Ci fib]
+20.8 +13.4 63 +24 +24 комфорт 1009.5 991.7
00 25.05 З 2 10 км 4/0
[Ci fib]
+18.7 +13.8 73 +20 +20 тепло 1008.9 991.0
03 25.05 СЗ 3 10 км 5/0
[Ac trans]
+21.4 +15.3 68 +25 +26 комфорт 1008.7 991.0 +17.8
06 25.05 З 3 10 км 6/0
[Ci fib]
+27.3 +14.6 46 +30 +38 душно 1008.2 990.8
09 25.05 СЗ 2 10 км 8/3 1500 м
[Cb calv Ac trans]
+28.3 +14.7 43 +31 +38 душно 1008.0 990.7
12 25.05 З 2 10 км 8/4 1500 м
[Cb calv Ac trans]
+28.6 +14.6 42 +31 +35 жарко 1007.6 990.3
15 25.05 С 4
{12}
10 км {гроза} 8/4 1500 м
[Cb calv Ac trans]
+23.4 +16.7 66 +28 +29 душно 1008.3 990.7 +29.4
18 25.05 СВ 9-12
{12}
10 км {гроза} 5/5 1500 м
[Cb calv]
+19.6 +14.0 70 +21 +21 комфорт 1011.6 993.7
21 25.05 СВ 15-20
{21}
4000 м пыльная буря {метель} 8/3 300 м
[St Ac trans]
+16.3 +9.4 64 +14 +14 по сезону 1014.1 995.9
00 26.05 СВ 12-18
{22}
10 км в посл. час ливневой дождь {метель} 8/0
[Ac trans]
+11.7 +3.7 58 +8 +8 прохладно 1017.4 998.8
03 26.05 СВ 11-16
{18}
10 км ясно +10.9 +0.7 49 +7 +7 очень
холодно
1020.2 1001.5 +10.6
06 26.05 СВ 13-17
{18}
10 км ясно +13.9 -1.5 34 +11 +11 очень
холодно
1022.2 1003.7

 

Местоположение метеостанции Волгоград (Волгоградская область, Россия): широта 48.78 долгота 44.37 высота над уровнем моря 134 м.

В архиве по умолчанию представлена погода в Волгограде за последнюю неделю. Архивные данные за месяц целиком и за предыдущие месяцы, начиная с января 2011 года, Вы можете получить, выбрав интересующий диапазон дат из раскрывающегося списка и нажав кнопку "Ввод!".


*Определитесь, кто Вы:
робот инопланетянин человек

Внимание! Время в таблицах - всемирное. Для получения местного времени необходимо прибавить поправку, которая в Волгограде равна 3 ч.

Смотрите также архив погоды в соседних городах и на ближайших метеорологических станциях:

Погода в Волгограде город (Волгоградская область, Россия) (14 км)
Погода в Иловле (Волгоградская область, Россия) (64 км)
Погода в Калаче-на-Дону (Волгоградская область, Россия) (66 км)
Погода в Малых Дербетах (Калмыкия, Россия) (98 км)
Погода в Нижнем Чире (Волгоградская область, Россия) (105 км)
Погода в Ольховке (Волгоградская область, Россия) (122 км)
Погода в Фролове (Волгоградская область, Россия) (124 км)
Погода в Серафимовиче (Волгоградская область, Россия) (148 км)
Погода в Черный Яр (Астраханская область, Россия) (151 км)
Погода в Котельниково (Волгоградская область, Россия) (157 км)

Пояснения к столбцам:

Ветер - указаны скорость ветра в м/с - средняя за 10 мин, порывы в срок и между сроками (в фигурных скобках) и направление, откуда дует ветер: С - северный, СВ - северо-восточный, В - восточный, ЮВ - юго-восточный, Ю - южный, ЮЗ - юго-западный, З - западный, СЗ - северо-западный.
Видимость - горизонтальная дальность видимости в метрах или километрах. При видимости от 1 до 10 км при отсутствии осадков обычно наблюдается дымка, при ухудшении видимости до 1 км и менее - туман. В сухую погоду видимость может ухудшаться дымом, пылью или мглою.
Явления - указаны атмосферные явления, наблюдавшиеся в срок или в последний час перед сроком; фигурными скобками обозначены явления, наблюдавшиеся между сроками (за 1-3 часа до срока); квадратными скобками обозначены град или гололедные отложения с указанием их диаметра в мм.
Облачность - указаны через наклонную черту общая и нижняя облачность в баллах и высота нижней границы облаков в метрах; квадратными скобками обозначены формы облаков: Ci - перистые, Cs - перисто-слоистые, Cc - перисто-кучевые, Ac - высококучевые, As - высокослоистые, Sc - слоисто-кучевые, Ns - слоисто-дождевые, Cu - кучевые, Cb - кучево-дождевые. Подробнее классификацию облаков см. в Атласе облаков (PDF).
T - Температура воздуха - температура, измеренная на высоте 2 м над землей.
Td - Температура точки росы - температура, при понижении до которой содержащийся в воздухе водяной пар достигнет насыщения.
f - Относительная влажность воздуха - влажноcть воздуха, измеренная на высоте 2 м над землей.
Te - Эффективная температура - температура, которую ощущает одетый по сезону человек в тени. Характеристика душности погоды. При расчете учитывается влияние влажности воздуха и скорости ветра на теплоощущения человека.
Tes - Эффективная температура на солнце - температура, которую ощущает человек, с поправкой на солнечный нагрев. Характеристика знойности погоды. Зависит от высоты солнца над горизонтом, облачности и скорости ветра. Ночью, в пасмурную погоду, а также при ветре 12 м/с и более поправка равна нулю.
P - Атмосферное давление - приведенное к уровню моря атмосферное давление.
Po - Атмосферное давление - измеренное на уровне метеостанции атмосферное давление.
Tmin - Минимальная температура - минимум температуры воздуха на высоте 2 м над землей.
Tmax - Максимальная температура - максимум температуры воздуха на высоте 2 м над землей.
R - Количество осадков - Количество выпавших осадков за период времени, мм. При наведении курсора мыши на число - период времени, за который выпало указанное количество осадков.
R24 - Количество осадков - Количество выпавших осадков за 24 часа, мм.
S - Снежный покров - Высота снежного покрова, см. При наведении курсора мыши на число - состояние снежного покрова и степень покрытия местности в баллах.